sat.trackr.live / text

‹ back to catalog

QIANKUN-1

NORAD 57422 · 2023-103B

PAYLOAD ACTIVE UNKNOWN

§ Identity

Operator
Country
PRC
Launch date
2023-07-22
Launch site
JSC
Launch vehicle
Mass (kg)
RCS (m²)

External: N2YO · Heavens-Above · Gunter

§ Orbital elements

Epoch: 2026-05-24T06:28:49.028160Z

Period
89.57 min
Inclination
96.1620°
Eccentricity
0.0023588
Mean motion
16.07670290 rev/d
Perigee alt
237.6 km
Apogee alt
268.9 km
Semi-major
6,631.4 km
B*
2.0140e-5
RAAN
190.7721°
Arg perigee
129.1661°
Mean anomaly
231.1726°
Rev number
16,345

§ Raw data

QIANKUN-11 57422U 23103B   26144.27001190  .00016242  17752-5  20140-4 0  99992 57422  96.1620 190.7721 0023588 129.1661 231.1726 16.07670290163454

JSON: /api/v1/satellites/57422 · /tle

For live sub-satellite position, see the globe view (requires WebGL).

§ Visibility from observer

Set your observer location to see the next 7 days of passes ≥ 10°. The values pass through the URL so the page stays shareable.

No JS? Fill the form by hand. The geolocation button needs JavaScript.

§ Radio — SatNOGS DB

ModeDescriptionDownlinkUplink
FM Mode U STRF 401.549 MHz

1 transmitter · refreshed weekly from db.satnogs.org